EW8373 Weather Reports


Display with metric or nautical units.
time (UTC)temp
F
wind
direction
speed
MPH
gust
MPH
rain 1hr
in
rain 24hr
in
rain mn
in
humidity
%
barometer
mb
20200706171806 69 275 4.0 7.0 0.00 0.00 0.00 69 1011.1
20200706171304 70 278 4.0 8.0 0.00 0.00 0.00 69 1011.1
20200706170804 70 288 3.0 6.0 0.00 0.00 0.00 70 1011.2
20200706170304 70 317 5.0 9.0 0.00 0.00 0.00 68 1011.1
20200706165807 70 306 3.0 7.0 0.00 0.00 0.00 68 1011.0
20200706165305 70 323 3.0 6.0 0.00 0.00 0.00 69 1010.8
20200706164804 70 302 3.0 10.0 0.00 0.00 0.00 68 1010.6
20200706164305 71 308 6.0 9.0 0.00 0.00 0.00 69 1010.6
20200706163806 71 286 6.0 9.0 0.00 0.00 0.00 69 1010.6
20200706163304 70 302 3.0 9.0 0.00 0.00 0.00 71 1010.5
20200706162805 70 329 6.0 10.0 0.00 0.00 0.00 72 1010.6
20200706162305 70 321 6.0 10.0 0.00 0.00 0.00 71 1010.7
20200706161803 70 330 4.0 9.0 0.00 0.00 0.00 71 1010.6
20200706161306 71 325 4.0 6.0 0.00 0.00 0.00 72 1010.7
20200706160806 70 315 6.0 10.0 0.00 0.00 0.00 74 1010.8
20200706160306 70 321 6.0 12.0 0.00 0.00 0.00 74 1010.8
20200706155804 70 310 5.0 8.0 0.00 0.00 0.00 72 1010.6
20200706155305 70 308 7.0 9.0 0.00 0.00 0.00 74 1010.5
20200706154805 70 314 7.0 12.0 0.00 0.00 0.00 74 1010.4
20200706154308 70 325 5.0 13.0 0.00 0.00 0.00 73 1010.2
20200706153806 71 308 4.0 8.0 0.00 0.00 0.00 73 1010.4
20200706153306 70 311 7.0 12.0 0.00 0.00 0.00 72 1010.5
20200706152804 70 289 5.0 9.0 0.00 0.00 0.00 73 1010.4
20200706152318 70 324 5.0 8.0 0.00 0.00 0.00 77 1010.5
20200706151805 70 292 5.0 12.0 0.00 0.00 0.00 75 1010.5
20200706151306 70 331 7.0 12.0 0.00 0.00 0.00 77 1010.4
20200706150806 69 320 6.0 9.0 0.00 0.00 0.00 78 1010.6
20200706150304 69 310 6.0 8.0 0.00 0.00 0.00 78 1010.6
20200706145806 69 307 7.0 12.0 0.00 0.00 0.00 77 1010.6
20200706145305 69 291 3.0 8.0 0.00 0.00 0.00 77 1010.7
20200706144806 69 291 3.0 5.0 0.00 0.00 0.00 79 1010.5
20200706144305 69 291 3.0 5.0 0.00 0.00 0.00 82 1010.7
20200706143809 68 289 2.0 3.0 0.00 0.00 0.00 80 1010.9
20200706143304 68 289 1.0 3.0 0.00 0.00 0.00 82 1011.0
20200706142806 68 289 3.0 3.0 0.00 0.00 0.00 83 1011.2
20200706142251 68 289 3.0 7.0 0.00 0.00 0.00 83 1011.1
20200706141751 67 283 2.0 8.0 0.00 0.00 0.00 82 1011.1
20200706141251 68 303 5.0 8.0 0.00 0.00 0.00 82 1011.0
20200706140750 68 324 8.0 13.0 0.00 0.00 0.00 81 1010.9
20200706140251 68 308 11.0 13.0 0.00 0.00 0.00 80 1010.9
20200706135751 68 294 12.0 15.0 0.00 0.00 0.00 79 1010.9
20200706135252 68 302 9.0 15.0 0.00 0.00 0.00 79 1011.0
20200706134751 68 305 11.0 16.0 0.00 0.00 0.00 79 1011.0
20200706134252 69 301 11.0 17.0 0.00 0.00 0.00 80 1011.1
20200706133752 68 297 10.0 17.0 0.00 0.00 0.00 82 1011.0
20200706133300 69 309 9.0 15.0 0.00 0.00 0.00 83 1011.1
20200706132752 68 312 11.0 16.0 0.00 0.00 0.00 84 1011.0
20200706132252 67 301 11.0 15.0 0.00 0.00 0.00 84 1010.9
20200706131754 67 301 12.0 20.0 0.00 0.00 0.00 83 1010.9
20200706131252 68 299 16.0 22.0 0.00 0.00 0.00 83 1010.9
20200706130752 68 303 15.0 26.0 0.00 0.00 0.00 82 1010.9
20200706130252 68 283 14.0 26.0 0.00 0.00 0.00 81 1010.9
20200706125754 69 291 17.0 29.0 0.00 0.00 0.00 79 1011.0
20200706125251 70 283 16.0 26.0 0.00 0.00 0.00 77 1010.8
20200706124753 70 311 12.0 20.0 0.00 0.00 0.00 79 1010.7
20200706124252 70 279 18.0 29.0 0.00 0.00 0.00 76 1010.6
20200706123751 71 299 14.0 22.0 0.00 0.00 0.00 77 1010.3
20200706123252 71 282 13.0 28.0 0.00 0.00 0.00 78 1010.2
20200706122754 72 285 15.0 29.0 0.00 0.00 0.00 74 1010.0
20200706122257 74 288 17.0 26.0 0.00 0.00 0.00 71 1009.9
20200706121754 75 285 17.0 26.0 0.00 0.00 0.00 69 1009.6
20200706121253 76 301 20.0 33.0 0.00 0.00 0.00 67 1009.4
20200706120752 76 276 21.0 29.0 0.00 0.00 0.00 67 1009.3
20200706120255 77 309 17.0 26.0 0.00 0.00 0.00 66 1009.2
20200706115753 77 306 20.0 29.0 0.00 0.00 0.00 67 1009.2
20200706115253 77 288 13.0 22.0 0.00 0.00 0.00 68 1009.1
20200706114752 77 308 12.0 20.0 0.00 0.00 0.00 68 1009.0
20200706114252 76 309 11.0 17.0 0.00 0.00 0.00 69 1009.0
20200706113752 77 287 9.0 15.0 0.00 0.00 0.00 68 1009.0
20200706113252 77 289 12.0 17.0 0.00 0.00 0.00 65 1008.9
20200706112754 78 280 13.0 21.0 0.00 0.00 0.00 62 1008.9
20200706112253 81 286 11.0 17.0 0.00 0.00 0.00 53 1008.9
20200706111753 82 237 6.0 14.0 0.00 0.00 0.00 53 1008.6
20200706111252 83 154 9.0 14.0 0.00 0.00 0.00 55 1008.5
20200706110754 83 155 9.0 15.0 0.00 0.00 0.00 53 1008.5
20200706110253 83 162 10.0 17.0 0.00 0.00 0.00 52 1008.5
20200706105753 83 162 7.0 14.0 0.00 0.00 0.00 53 1008.5
20200706105253 83 164 10.0 17.0 0.00 0.00 0.00 53 1008.6
20200706104753 82 167 7.0 14.0 0.00 0.00 0.00 57 1008.6
20200706104252 82 199 7.0 10.0 0.00 0.00 0.00 54 1008.6
20200706103754 82 168 6.0 15.0 0.00 0.00 0.00 54 1008.7
20200706103252 82 188 8.0 17.0 0.00 0.00 0.00 54 1008.8
20200706102753 83 141 7.0 12.0 0.00 0.00 0.00 53 1008.8
20200706102254 83 212 6.0 12.0 0.00 0.00 0.00 53 1008.8
20200706101757 82 143 6.0 12.0 0.00 0.00 0.00 54 1008.9
20200706101255 82 233 6.0 9.0 0.00 0.00 0.00 59 1008.9
20200706100800 81 294 2.0 7.0 0.00 0.00 0.00 57 1009.0
20200706100254 80 238 2.0 6.0 0.00 0.00 0.00 60 1009.2
20200706095754 81 242 3.0 7.0 0.00 0.00 0.00 59 1009.2
20200706095252 81 308 3.0 9.0 0.00 0.00 0.00 60 1009.2
20200706094756 81 272 7.0 12.0 0.00 0.00 0.00 57 1009.3
20200706094253 81 261 7.0 10.0 0.00 0.00 0.00 57 1009.4
20200706093754 81 258 6.0 10.0 0.00 0.00 0.00 59 1009.5
20200706093254 81 283 7.0 12.0 0.00 0.00 0.00 59 1009.5
20200706092755 80 281 5.0 8.0 0.00 0.00 0.00 59 1009.5
20200706092254 79 265 5.0 7.0 0.00 0.00 0.00 61 1009.6
20200706091753 79 299 5.0 9.0 0.00 0.00 0.00 61 1009.7
20200706091258 79 260 5.0 12.0 0.00 0.00 0.00 63 1009.7
20200706090755 77 240 5.0 9.0 0.00 0.00 0.00 65 1009.8
20200706090254 77 199 5.0 9.0 0.00 0.00 0.00 66 1009.8
20200706085755 78 149 4.0 12.0 0.00 0.00 0.00 64 1009.7
20200706085255 78 124 6.0 10.0 0.00 0.00 0.00 62 1009.8
20200706084756 78 107 6.0 12.0 0.00 0.00 0.00 64 1009.8
20200706084254 79 77 7.0 12.0 0.00 0.00 0.00 64 1009.8
20200706083755 79 129 7.0 9.0 0.00 0.00 0.00 64 1009.9
20200706083256 79 134 5.0 7.0 0.00 0.00 0.00 64 1010.0
20200706082754 79 133 7.0 10.0 0.00 0.00 0.00 63 1010.0
20200706082255 79 119 5.0 9.0 0.00 0.00 0.00 64 1010.0
20200706081756 80 103 3.0 8.0 0.00 0.00 0.00 63 1010.0
20200706081304 79 122 5.0 10.0 0.00 0.00 0.00 63 1010.0
20200706080756 79 128 3.0 5.0 0.00 0.00 0.00 63 1010.0
20200706080255 79 112 2.0 5.0 0.00 0.00 0.00 63 1010.1
20200706075800 78 160 5.0 8.0 0.00 0.00 0.00 64 1010.1
20200706075255 78 91 3.0 7.0 0.00 0.00 0.00 67 1010.2
20200706074755 78 90 3.0 6.0 0.00 0.00 0.00 69 1010.2
20200706074258 78 91 5.0 9.0 0.00 0.00 0.00 68 1010.3
20200706073756 77 97 5.0 8.0 0.00 0.00 0.00 70 1010.4
20200706073255 77 126 6.0 10.0 0.00 0.00 0.00 70 1010.4
20200706072754 76 161 2.0 5.0 0.00 0.00 0.00 70 1010.5
20200706072257 76 38 3.0 7.0 0.00 0.00 0.00 72 1010.6
20200706071755 75 106 5.0 7.0 0.00 0.00 0.00 74 1010.6
20200706071256 75 119 5.0 9.0 0.00 0.00 0.00 74 1010.6
20200706070754 74 120 6.0 9.0 0.00 0.00 0.00 76 1010.6
20200706070257 74 126 4.0 8.0 0.00 0.00 0.00 76 1010.7
20200706065755 74 111 5.0 8.0 0.00 0.00 0.00 77 1010.8
20200706065254 72 116 2.0 8.0 0.00 0.00 0.00 78 1010.8
20200706064756 72 107 3.0 7.0 0.00 0.00 0.00 78 1010.9
20200706064255 72 123 4.0 7.0 0.00 0.00 0.00 78 1010.9
20200706063756 72 81 3.0 8.0 0.00 0.00 0.00 78 1010.9
20200706063256 72 141 5.0 8.0 0.00 0.00 0.00 79 1010.9
20200706062756 71 103 2.0 8.0 0.00 0.00 0.00 79 1011.0
20200706062257 71 80 5.0 7.0 0.00 0.00 0.00 80 1011.1
20200706061757 71 78 3.0 8.0 0.00 0.00 0.00 80 1011.1
20200706061256 71 86 5.0 9.0 0.00 0.00 0.00 80 1011.2
20200706060757 71 136 5.0 8.0 0.00 0.00 0.00 80 1011.2
20200706060258 71 155 5.0 7.0 0.00 0.00 0.00 80 1011.1
20200706055756 71 119 6.0 8.0 0.00 0.00 0.00 79 1011.1
20200706055256 70 119 4.0 7.0 0.00 0.00 0.00 80 1011.1
20200706054757 70 117 6.0 7.0 0.00 0.00 0.00 79 1011.1
20200706054258 71 117 3.0 6.0 0.00 0.00 0.00 78 1011.2
20200706053757 70 117 4.0 7.0 0.00 0.00 0.00 80 1011.2
20200706053257 69 117 3.0 6.0 0.00 0.00 0.00 81 1011.3
20200706052757 70 117 4.0 7.0 0.00 0.00 0.00 79 1011.3
20200706052257 69 117 5.0 7.0 0.00 0.00 0.00 81 1011.2
20200706051801 69 117 2.0 6.0 0.00 0.00 0.00 81 1011.2
20200706051257 68 117 3.0 3.0 0.00 0.00 0.00 81 1011.3
20200706050757 68 117 2.0 3.0 0.00 0.00 0.00 82 1011.3
20200706050259 68 117 3.0 3.0 0.00 0.00 0.00 82 1011.3
20200706045755 67 118 2.0 3.0 0.00 0.00 0.00 83 1011.3
20200706045256 67 118 2.0 3.0 0.00 0.00 0.00 83 1011.4
20200706044755 67 119 1.0 2.0 0.00 0.00 0.00 84 1011.3
20200706044302 66 119 1.0 2.0 0.00 0.00 0.00 84 1011.4
20200706043757 66 121 1.0 3.0 0.00 0.00 0.00 85 1011.4
20200706043259 66 121 2.0 3.0 0.00 0.00 0.00 85 1011.4
20200706042757 66 121 1.0 2.0 0.00 0.00 0.00 86 1011.5
20200706042300 65 121 1.0 2.0 0.00 0.00 0.00 87 1011.5
20200706041757 65 121 2.0 3.0 0.00 0.00 0.00 87 1011.6
20200706041257 65 121 2.0 5.0 0.00 0.00 0.00 88 1011.5
20200706040758 65 121 3.0 5.0 0.00 0.00 0.00 88 1011.5
20200706040257 65 121 2.0 7.0 0.00 0.00 0.00 88 1011.4
20200706035758 65 109 5.0 8.0 0.00 0.00 0.00 89 1011.5
20200706035257 65 114 2.0 3.0 0.00 0.00 0.00 89 1011.6
20200706034758 65 114 2.0 3.0 0.00 0.00 0.00 89 1011.6
20200706034258 65 114 2.0 3.0 0.00 0.00 0.00 90 1011.6
20200706033800 64 114 0.0 1.0 0.00 0.00 0.00 90 1011.6
20200706033258 64 114 2.0 3.0 0.00 0.00 0.00 90 1011.6
20200706032758 65 114 2.0 3.0 0.00 0.00 0.00 90 1011.6
20200706032301 65 114 2.0 3.0 0.00 0.00 0.00 90 1011.6
20200706031758 65 114 2.0 3.0 0.00 0.00 0.00 90 1011.5
20200706031259 65 114 2.0 3.0 0.00 0.00 0.00 89 1011.5
20200706030758 65 114 3.0 3.0 0.00 0.00 0.00 90 1011.5
20200706030259 64 113 2.0 3.0 0.00 0.00 0.00 90 1011.5
20200706025759 65 114 1.0 3.0 0.00 0.00 0.00 89 1011.5
20200706025300 65 114 2.0 3.0 0.00 0.00 0.00 89 1011.6
20200706024758 65 114 2.0 3.0 0.00 0.00 0.00 90 1011.5
20200706024258 64 70 3.0 3.0 0.00 0.00 0.00 90 1011.5
20200706023759 64 63 1.0 3.0 0.00 0.00 0.00 90 1011.5
20200706023300 65 92 0.0 3.0 0.00 0.00 0.00 89 1011.6
20200706022758 65 92 2.0 3.0 0.00 0.00 0.00 88 1011.6
20200706022300 66 92 2.0 3.0 0.00 0.00 0.00 87 1011.6
20200706021758 66 92 2.0 3.0 0.00 0.00 0.00 87 1011.7
20200706021258 66 92 2.0 3.0 0.00 0.00 0.00 87 1011.7
20200706020759 66 92 2.0 3.0 0.00 0.00 0.00 87 1011.7
20200706020259 66 92 2.0 3.0 0.00 0.00 0.00 87 1011.8
20200706015759 65 92 2.0 3.0 0.00 0.00 0.00 88 1011.9
20200706015259 65 172 2.0 3.0 0.00 0.00 0.00 88 1011.8
20200706014800 65 216 0.0 1.0 0.00 0.00 0.00 87 1011.9
20200706014300 66 216 1.0 3.0 0.00 0.00 0.00 85 1011.9
20200706013800 66 216 2.0 3.0 0.00 0.00 0.00 85 1012.0
20200706013258 66 216 1.0 2.0 0.00 0.00 0.00 85 1012.0
20200706012759 66 216 0.0 2.0 0.00 0.00 0.00 85 1012.0
20200706012259 66 216 1.0 3.0 0.00 0.00 0.00 84 1012.0
20200706011758 66 216 2.0 3.0 0.00 0.00 0.00 84 1012.1
20200706011302 67 227 2.0 3.0 0.00 0.00 0.00 83 1012.2
20200706010801 67 232 2.0 3.0 0.00 0.00 0.00 83 1012.2
20200706010300 67 232 1.0 3.0 0.00 0.00 0.00 83 1012.2
20200706005800 67 232 2.0 3.0 0.00 0.00 0.00 83 1012.2
20200706005258 67 232 2.0 3.0 0.00 0.00 0.00 83 1012.2
20200706004759 67 208 2.0 3.0 0.00 0.00 0.00 81 1012.3
20200706004300 67 195 3.0 5.0 0.00 0.00 0.00 82 1012.3
20200706003759 67 159 2.0 3.0 0.00 0.00 0.00 82 1012.3
20200706003300 67 186 2.0 3.0 0.00 0.00 0.00 82 1012.3
20200706002759 67 229 3.0 6.0 0.00 0.00 0.00 82 1012.3
20200706002303 67 219 5.0 7.0 0.00 0.00 0.00 82 1012.4
20200706001801 67 232 5.0 6.0 0.00 0.00 0.00 82 1012.3
20200706001300 67 217 4.0 6.0 0.00 0.00 0.00 82 1012.3
20200706000800 68 220 5.0 7.0 0.00 0.00 0.00 81 1012.4
20200706000300 68 220 4.0 6.0 0.00 0.00 0.00 80 1012.4
20200705235800 68 218 4.0 7.0 0.00 0.00 0.00 79 1012.4
20200705235259 69 213 5.0 7.0 0.00 0.00 0.00 79 1012.3
20200705234759 69 213 4.0 7.0 0.00 0.00 0.00 79 1012.3
20200705234301 69 205 4.0 7.0 0.00 0.00 0.00 79 1012.3
20200705233801 69 205 5.0 6.0 0.00 0.00 0.00 79 1012.4
20200705233300 68 210 5.0 8.0 0.00 0.00 0.00 81 1012.4
20200705232801 68 193 4.0 6.0 0.00 0.00 0.00 81 1012.4
20200705232300 68 215 4.0 7.0 0.00 0.00 0.00 80 1012.4
20200705231801 68 217 3.0 6.0 0.00 0.00 0.00 79 1012.4
20200705231302 68 203 3.0 6.0 0.00 0.00 0.00 81 1012.5
20200705230801 68 217 3.0 5.0 0.00 0.00 0.00 81 1012.5
20200705230301 67 183 2.0 3.0 0.00 0.00 0.00 81 1012.5
20200705225801 67 170 1.0 5.0 0.00 0.00 0.00 83 1012.6
20200705225301 68 170 1.0 3.0 0.00 0.00 0.00 81 1012.6
20200705224800 68 170 1.0 3.0 0.00 0.00 0.00 82 1012.5
20200705224301 68 149 2.0 5.0 0.00 0.00 0.00 80 1012.6
20200705223802 68 183 2.0 3.0 0.00 0.00 0.00 80 1012.5
20200705223301 68 183 1.0 2.0 0.00 0.00 0.00 80 1012.5
20200705222805 68 183 1.0 3.0 0.00 0.00 0.00 80 1012.5
20200705222301 68 184 1.0 3.0 0.00 0.00 0.00 81 1012.5
20200705221801 69 184 2.0 3.0 0.00 0.00 0.00 79 1012.5
20200705221302 69 182 1.0 3.0 0.00 0.00 0.00 79 1012.5
20200705220803 69 182 1.0 3.0 0.00 0.00 0.00 80 1012.6
20200705220303 69 193 3.0 3.0 0.00 0.00 0.00 79 1012.5
20200705215801 69 205 3.0 6.0 0.00 0.00 0.00 78 1012.6
20200705215303 69 179 3.0 6.0 0.00 0.00 0.00 78 1012.7
20200705214802 69 171 3.0 7.0 0.00 0.00 0.00 79 1012.6
20200705214301 69 192 4.0 6.0 0.00 0.00 0.00 78 1012.6
20200705213804 69 187 3.0 6.0 0.00 0.00 0.00 78 1012.7
20200705213301 70 209 3.0 6.0 0.00 0.00 0.00 78 1012.7
20200705212802 70 209 2.0 5.0 0.00 0.00 0.00 78 1012.7
20200705212303 70 209 1.0 3.0 0.00 0.00 0.00 76 1012.7
20200705211804 70 209 2.0 3.0 0.00 0.00 0.00 76 1012.7
20200705211302 71 209 3.0 5.0 0.00 0.00 0.00 75 1012.7
20200705210802 70 210 2.0 3.0 0.00 0.00 0.00 76 1012.7
20200705210300 70 201 3.0 7.0 0.00 0.00 0.00 77 1012.8
20200705205803 71 195 3.0 6.0 0.00 0.00 0.00 77 1012.8
20200705205306 71 151 3.0 7.0 0.00 0.00 0.00 76 1012.8
20200705204801 71 172 4.0 7.0 0.00 0.00 0.00 75 1012.7
20200705204302 71 172 3.0 7.0 0.00 0.00 0.00 75 1012.7
20200705203803 71 172 4.0 6.0 0.00 0.00 0.00 75 1012.7
20200705203303 72 173 4.0 7.0 0.00 0.00 0.00 75 1012.7
20200705202801 72 174 4.0 7.0 0.00 0.00 0.00 74 1012.8
20200705202303 72 173 3.0 6.0 0.00 0.00 0.00 76 1012.8
20200705201802 72 192 3.0 6.0 0.00 0.00 0.00 75 1012.8
20200705201303 72 191 3.0 7.0 0.00 0.00 0.00 74 1012.7
20200705200803 73 190 3.0 6.0 0.00 0.00 0.00 74 1012.7
20200705200305 73 191 3.0 6.0 0.00 0.00 0.00 74 1012.7
20200705195803 73 191 5.0 7.0 0.00 0.00 0.00 73 1012.7
20200705195303 73 189 3.0 6.0 0.00 0.00 0.00 74 1012.7
20200705194803 73 190 3.0 7.0 0.00 0.00 0.00 73 1012.6
20200705194302 74 207 3.0 7.0 0.00 0.00 0.00 72 1012.7
20200705193803 74 228 3.0 5.0 0.00 0.00 0.00 70 1012.7
20200705193303 74 228 2.0 5.0 0.00 0.00 0.00 70 1012.6
20200705192803 75 228 3.0 5.0 0.00 0.00 0.00 70 1012.5
20200705192302 75 228 4.0 6.0 0.00 0.00 0.00 68 1012.6
20200705191804 76 228 3.0 6.0 0.00 0.00 0.00 67 1012.5
20200705191304 76 228 3.0 3.0 0.00 0.00 0.00 67 1012.5
20200705190805 76 228 3.0 6.0 0.00 0.00 0.00 67 1012.5
20200705190303 77 228 4.0 6.0 0.00 0.00 0.00 65 1012.5
20200705185803 77 228 3.0 6.0 0.00 0.00 0.00 65 1012.5
20200705185302 77 228 3.0 5.0 0.00 0.00 0.00 64 1012.4
20200705184804 78 228 4.0 6.0 0.00 0.00 0.00 64 1012.5
20200705184303 78 228 5.0 7.0 0.00 0.00 0.00 63 1012.5
20200705183803 78 228 5.0 7.0 0.00 0.00 0.00 63 1012.5
20200705183303 78 229 3.0 6.0 0.00 0.00 0.00 63 1012.5
20200705182804 79 229 4.0 6.0 0.00 0.00 0.00 63 1012.5
20200705182303 79 229 5.0 7.0 0.00 0.00 0.00 62 1012.5
20200705181805 79 229 6.0 8.0 0.00 0.00 0.00 63 1012.5
20200705181303 79 235 5.0 8.0 0.00 0.00 0.00 64 1012.5
20200705180804 79 216 3.0 5.0 0.00 0.00 0.00 63 1012.5
20200705180304 79 189 2.0 3.0 0.00 0.00 0.00 63 1012.5
20200705175803 79 179 2.0 5.0 0.00 0.00 0.00 62 1012.5
20200705175310 79 208 2.0 8.0 0.00 0.00 0.00 62 1012.6
20200705174805 79 186 3.0 6.0 0.00 0.00 0.00 62 1012.6
20200705174304 79 175 3.0 6.0 0.00 0.00 0.00 61 1012.6
20200705173803 79 173 3.0 7.0 0.00 0.00 0.00 60 1012.6
20200705173304 79 195 4.0 7.0 0.00 0.00 0.00 61 1012.6
20200705172803 79 163 4.0 7.0 0.00 0.00 0.00 61 1012.6
20200705172304 79 176 5.0 8.0 0.00 0.00 0.00 60 1012.7